<?xml version="1.0" encoding="UTF-8" standalone="no" ?>
<gpx xmlns="http://www.topografix.com/GPX/1/1" xmlns:xsi="http://www.w3.org/2001/XMLSchema-instance" xsi:schemaLocation="http://www.topografix.com/GPX/1/1 http://www.topografix.com/GPX/1/1/gpx.xsd" version="1.1" creator="VisuGPX - https://www.visugpx.com">
  <metadata>
    <name>10867738-Chevauchées 2022 J2 sud vienne</name>
  </metadata>
  <wpt lat="47.18336" lon="0.05283">
    <ele>75.7</ele>
    <name><![CDATA[]]></name>
    <desc><![CDATA[]]></desc>
  </wpt>
  <wpt lat="47.18179" lon="0.04983">
    <ele>79.8</ele>
    <name><![CDATA[]]></name>
    <desc><![CDATA[]]></desc>
  </wpt>
  <wpt lat="47.17993" lon="0.09982">
    <ele>75.6</ele>
    <name><![CDATA[]]></name>
    <desc><![CDATA[]]></desc>
  </wpt>
  <wpt lat="47.17593" lon="0.10158">
    <ele>72.7</ele>
    <name><![CDATA[]]></name>
    <desc><![CDATA[]]></desc>
  </wpt>
  <trk>
    <name><![CDATA[10867738-Chevauchées 2022 J2 sud vienne]]></name>
    <trkseg>
      <trkpt lat="47.22433" lon="0.12669">
        <ele>33</ele>
        <time>2022-01-13T17:41:33Z</time>
      </trkpt>
      <trkpt lat="47.22384" lon="0.12736">
        <ele>33</ele>
        <time>2022-01-13T17:42:27Z</time>
      </trkpt>
      <trkpt lat="47.22283" lon="0.12563">
        <ele>30</ele>
        <time>2022-01-13T17:44:31Z</time>
      </trkpt>
      <trkpt lat="47.22451" lon="0.12273">
        <ele>34</ele>
        <time>2022-01-13T17:47:58Z</time>
      </trkpt>
      <trkpt lat="47.22234" lon="0.12003">
        <ele>31</ele>
        <time>2022-01-13T17:51:45Z</time>
      </trkpt>
      <trkpt lat="47.22075" lon="0.11963">
        <ele>32</ele>
        <time>2022-01-13T17:53:54Z</time>
      </trkpt>
      <trkpt lat="47.22086" lon="0.11938">
        <ele>32</ele>
        <time>2022-01-13T17:54:11Z</time>
      </trkpt>
      <trkpt lat="47.21873" lon="0.11537">
        <ele>31</ele>
        <time>2022-01-13T17:58:48Z</time>
      </trkpt>
      <trkpt lat="47.22077" lon="0.1134">
        <ele>34</ele>
        <time>2022-01-13T18:02:03Z</time>
      </trkpt>
      <trkpt lat="47.21923" lon="0.11062">
        <ele>32</ele>
        <time>2022-01-13T18:05:18Z</time>
      </trkpt>
      <trkpt lat="47.2179" lon="0.109">
        <ele>32</ele>
        <time>2022-01-13T18:07:36Z</time>
      </trkpt>
      <trkpt lat="47.21803" lon="0.10862">
        <ele>31</ele>
        <time>2022-01-13T18:07:59Z</time>
      </trkpt>
      <trkpt lat="47.21774" lon="0.10788">
        <ele>31</ele>
        <time>2022-01-13T18:08:46Z</time>
      </trkpt>
      <trkpt lat="47.21719" lon="0.10735">
        <ele>31</ele>
        <time>2022-01-13T18:09:38Z</time>
      </trkpt>
      <trkpt lat="47.21673" lon="0.10749">
        <ele>31</ele>
        <time>2022-01-13T18:10:16Z</time>
      </trkpt>
      <trkpt lat="47.21552" lon="0.10933">
        <ele>33</ele>
        <time>2022-01-13T18:12:35Z</time>
      </trkpt>
      <trkpt lat="47.21534" lon="0.10976">
        <ele>33</ele>
        <time>2022-01-13T18:13:03Z</time>
      </trkpt>
      <trkpt lat="47.21506" lon="0.10998">
        <ele>31</ele>
        <time>2022-01-13T18:13:28Z</time>
      </trkpt>
      <trkpt lat="47.21506" lon="0.10953">
        <ele>31</ele>
        <time>2022-01-13T18:13:53Z</time>
      </trkpt>
      <trkpt lat="47.21492" lon="0.10769">
        <ele>35</ele>
        <time>2022-01-13T18:15:33Z</time>
      </trkpt>
      <trkpt lat="47.21497" lon="0.10727">
        <ele>36</ele>
        <time>2022-01-13T18:15:57Z</time>
      </trkpt>
      <trkpt lat="47.21452" lon="0.1019">
        <ele>37</ele>
        <time>2022-01-13T18:20:51Z</time>
      </trkpt>
      <trkpt lat="47.2142" lon="0.09874">
        <ele>35</ele>
        <time>2022-01-13T18:23:45Z</time>
      </trkpt>
      <trkpt lat="47.21418" lon="0.09733">
        <ele>36</ele>
        <time>2022-01-13T18:25:01Z</time>
      </trkpt>
      <trkpt lat="47.21423" lon="0.09694">
        <ele>37</ele>
        <time>2022-01-13T18:25:23Z</time>
      </trkpt>
      <trkpt lat="47.21418" lon="0.09636">
        <ele>39</ele>
        <time>2022-01-13T18:25:55Z</time>
      </trkpt>
      <trkpt lat="47.21411" lon="0.09501">
        <ele>41</ele>
        <time>2022-01-13T18:27:08Z</time>
      </trkpt>
      <trkpt lat="47.21372" lon="0.09345">
        <ele>34</ele>
        <time>2022-01-13T18:28:39Z</time>
      </trkpt>
      <trkpt lat="47.21371" lon="0.09268">
        <ele>32</ele>
        <time>2022-01-13T18:29:21Z</time>
      </trkpt>
      <trkpt lat="47.21381" lon="0.09211">
        <ele>34</ele>
        <time>2022-01-13T18:29:53Z</time>
      </trkpt>
      <trkpt lat="47.21376" lon="0.09098">
        <ele>37</ele>
        <time>2022-01-13T18:30:54Z</time>
      </trkpt>
      <trkpt lat="47.21383" lon="0.0899">
        <ele>38</ele>
        <time>2022-01-13T18:31:53Z</time>
      </trkpt>
      <trkpt lat="47.21371" lon="0.08907">
        <ele>35</ele>
        <time>2022-01-13T18:32:39Z</time>
      </trkpt>
      <trkpt lat="47.21326" lon="0.08784">
        <ele>36</ele>
        <time>2022-01-13T18:33:55Z</time>
      </trkpt>
      <trkpt lat="47.2127" lon="0.08486">
        <ele>35</ele>
        <time>2022-01-13T18:36:43Z</time>
      </trkpt>
      <trkpt lat="47.21268" lon="0.08428">
        <ele>35</ele>
        <time>2022-01-13T18:37:15Z</time>
      </trkpt>
      <trkpt lat="47.21281" lon="0.08377">
        <ele>36</ele>
        <time>2022-01-13T18:37:45Z</time>
      </trkpt>
      <trkpt lat="47.20919" lon="0.07819">
        <ele>36</ele>
        <time>2022-01-13T18:44:44Z</time>
      </trkpt>
      <trkpt lat="47.20924" lon="0.07808">
        <ele>37</ele>
        <time>2022-01-13T18:44:52Z</time>
      </trkpt>
      <trkpt lat="47.20935" lon="0.07801">
        <ele>36</ele>
        <time>2022-01-13T18:45:01Z</time>
      </trkpt>
      <trkpt lat="47.2095" lon="0.07785">
        <ele>37</ele>
        <time>2022-01-13T18:45:16Z</time>
      </trkpt>
      <trkpt lat="47.2097" lon="0.07771">
        <ele>36</ele>
        <time>2022-01-13T18:45:34Z</time>
      </trkpt>
      <trkpt lat="47.21012" lon="0.07701">
        <ele>36</ele>
        <time>2022-01-13T18:46:25Z</time>
      </trkpt>
      <trkpt lat="47.21059" lon="0.07644">
        <ele>34</ele>
        <time>2022-01-13T18:47:13Z</time>
      </trkpt>
      <trkpt lat="47.21068" lon="0.07668">
        <ele>31</ele>
        <time>2022-01-13T18:47:28Z</time>
      </trkpt>
      <trkpt lat="47.2109" lon="0.07648">
        <ele>30</ele>
        <time>2022-01-13T18:47:49Z</time>
      </trkpt>
      <trkpt lat="47.21107" lon="0.07623">
        <ele>31</ele>
        <time>2022-01-13T18:48:08Z</time>
      </trkpt>
      <trkpt lat="47.21121" lon="0.07606">
        <ele>31</ele>
        <time>2022-01-13T18:48:23Z</time>
      </trkpt>
      <trkpt lat="47.21163" lon="0.07538">
        <ele>32</ele>
        <time>2022-01-13T18:49:13Z</time>
      </trkpt>
      <trkpt lat="47.21177" lon="0.07515">
        <ele>33</ele>
        <time>2022-01-13T18:49:29Z</time>
      </trkpt>
      <trkpt lat="47.21208" lon="0.07457">
        <ele>33</ele>
        <time>2022-01-13T18:50:10Z</time>
      </trkpt>
      <trkpt lat="47.21217" lon="0.07447">
        <ele>33</ele>
        <time>2022-01-13T18:50:19Z</time>
      </trkpt>
      <trkpt lat="47.21238" lon="0.07418">
        <ele>31</ele>
        <time>2022-01-13T18:50:42Z</time>
      </trkpt>
      <trkpt lat="47.2125" lon="0.07383">
        <ele>31</ele>
        <time>2022-01-13T18:51:03Z</time>
      </trkpt>
      <trkpt lat="47.21263" lon="0.07333">
        <ele>31</ele>
        <time>2022-01-13T18:51:32Z</time>
      </trkpt>
      <trkpt lat="47.21278" lon="0.07269">
        <ele>32</ele>
        <time>2022-01-13T18:52:09Z</time>
      </trkpt>
      <trkpt lat="47.21286" lon="0.07214">
        <ele>34</ele>
        <time>2022-01-13T18:52:40Z</time>
      </trkpt>
      <trkpt lat="47.21302" lon="0.07156">
        <ele>34</ele>
        <time>2022-01-13T18:53:14Z</time>
      </trkpt>
      <trkpt lat="47.21323" lon="0.07103">
        <ele>32</ele>
        <time>2022-01-13T18:53:47Z</time>
      </trkpt>
      <trkpt lat="47.21415" lon="0.06871">
        <ele>30</ele>
        <time>2022-01-13T18:56:13Z</time>
      </trkpt>
      <trkpt lat="47.21446" lon="0.06765">
        <ele>31</ele>
        <time>2022-01-13T18:57:16Z</time>
      </trkpt>
      <trkpt lat="47.21442" lon="0.06739">
        <ele>31</ele>
        <time>2022-01-13T18:57:30Z</time>
      </trkpt>
      <trkpt lat="47.21432" lon="0.06757">
        <ele>32</ele>
        <time>2022-01-13T18:57:43Z</time>
      </trkpt>
      <trkpt lat="47.21421" lon="0.06753">
        <ele>33</ele>
        <time>2022-01-13T18:57:52Z</time>
      </trkpt>
      <trkpt lat="47.21424" lon="0.06676">
        <ele>33</ele>
        <time>2022-01-13T18:58:34Z</time>
      </trkpt>
      <trkpt lat="47.21418" lon="0.06658">
        <ele>33</ele>
        <time>2022-01-13T18:58:45Z</time>
      </trkpt>
      <trkpt lat="47.21404" lon="0.0666">
        <ele>34</ele>
        <time>2022-01-13T18:58:56Z</time>
      </trkpt>
      <trkpt lat="47.21381" lon="0.06687">
        <ele>36</ele>
        <time>2022-01-13T18:59:20Z</time>
      </trkpt>
      <trkpt lat="47.21348" lon="0.06722">
        <ele>41</ele>
        <time>2022-01-13T18:59:52Z</time>
      </trkpt>
      <trkpt lat="47.21327" lon="0.06759">
        <ele>46</ele>
        <time>2022-01-13T19:00:18Z</time>
      </trkpt>
      <trkpt lat="47.21313" lon="0.06761">
        <ele>47</ele>
        <time>2022-01-13T19:00:30Z</time>
      </trkpt>
      <trkpt lat="47.21277" lon="0.06788">
        <ele>52</ele>
        <time>2022-01-13T19:01:02Z</time>
      </trkpt>
      <trkpt lat="47.21232" lon="0.06801">
        <ele>55</ele>
        <time>2022-01-13T19:01:39Z</time>
      </trkpt>
      <trkpt lat="47.21222" lon="0.06807">
        <ele>55</ele>
        <time>2022-01-13T19:01:47Z</time>
      </trkpt>
      <trkpt lat="47.21207" lon="0.06826">
        <ele>57</ele>
        <time>2022-01-13T19:02:03Z</time>
      </trkpt>
      <trkpt lat="47.2118" lon="0.06905">
        <ele>62</ele>
        <time>2022-01-13T19:02:51Z</time>
      </trkpt>
      <trkpt lat="47.2115" lon="0.0698">
        <ele>65</ele>
        <time>2022-01-13T19:03:39Z</time>
      </trkpt>
      <trkpt lat="47.21126" lon="0.07036">
        <ele>64</ele>
        <time>2022-01-13T19:04:15Z</time>
      </trkpt>
      <trkpt lat="47.21092" lon="0.07083">
        <ele>63</ele>
        <time>2022-01-13T19:04:52Z</time>
      </trkpt>
      <trkpt lat="47.2108" lon="0.07099">
        <ele>63</ele>
        <time>2022-01-13T19:05:05Z</time>
      </trkpt>
      <trkpt lat="47.21054" lon="0.07147">
        <ele>62</ele>
        <time>2022-01-13T19:05:38Z</time>
      </trkpt>
      <trkpt lat="47.2104" lon="0.07178">
        <ele>63</ele>
        <time>2022-01-13T19:05:59Z</time>
      </trkpt>
      <trkpt lat="47.21018" lon="0.07203">
        <ele>64</ele>
        <time>2022-01-13T19:06:21Z</time>
      </trkpt>
      <trkpt lat="47.21024" lon="0.07212">
        <ele>64</ele>
        <time>2022-01-13T19:06:28Z</time>
      </trkpt>
      <trkpt lat="47.21011" lon="0.07293">
        <ele>65</ele>
        <time>2022-01-13T19:07:13Z</time>
      </trkpt>
      <trkpt lat="47.21002" lon="0.07346">
        <ele>66</ele>
        <time>2022-01-13T19:07:43Z</time>
      </trkpt>
      <trkpt lat="47.20996" lon="0.07361">
        <ele>66</ele>
        <time>2022-01-13T19:07:52Z</time>
      </trkpt>
      <trkpt lat="47.20985" lon="0.07404">
        <ele>66</ele>
        <time>2022-01-13T19:08:17Z</time>
      </trkpt>
      <trkpt lat="47.20975" lon="0.07416">
        <ele>67</ele>
        <time>2022-01-13T19:08:28Z</time>
      </trkpt>
      <trkpt lat="47.20966" lon="0.07416">
        <ele>67</ele>
        <time>2022-01-13T19:08:35Z</time>
      </trkpt>
      <trkpt lat="47.20946" lon="0.07451">
        <ele>70</ele>
        <time>2022-01-13T19:09:00Z</time>
      </trkpt>
      <trkpt lat="47.20922" lon="0.07485">
        <ele>75</ele>
        <time>2022-01-13T19:09:26Z</time>
      </trkpt>
      <trkpt lat="47.20903" lon="0.07502">
        <ele>77</ele>
        <time>2022-01-13T19:09:44Z</time>
      </trkpt>
      <trkpt lat="47.2089" lon="0.0751">
        <ele>77</ele>
        <time>2022-01-13T19:09:55Z</time>
      </trkpt>
      <trkpt lat="47.2088" lon="0.07533">
        <ele>76</ele>
        <time>2022-01-13T19:10:10Z</time>
      </trkpt>
      <trkpt lat="47.20859" lon="0.07579">
        <ele>77</ele>
        <time>2022-01-13T19:10:40Z</time>
      </trkpt>
      <trkpt lat="47.20823" lon="0.07609">
        <ele>80</ele>
        <time>2022-01-13T19:11:14Z</time>
      </trkpt>
      <trkpt lat="47.20801" lon="0.07547">
        <ele>80</ele>
        <time>2022-01-13T19:11:52Z</time>
      </trkpt>
      <trkpt lat="47.20759" lon="0.07458">
        <ele>78</ele>
        <time>2022-01-13T19:12:51Z</time>
      </trkpt>
      <trkpt lat="47.20726" lon="0.07395">
        <ele>80</ele>
        <time>2022-01-13T19:13:34Z</time>
      </trkpt>
      <trkpt lat="47.20671" lon="0.07335">
        <ele>82</ele>
        <time>2022-01-13T19:14:29Z</time>
      </trkpt>
      <trkpt lat="47.2056" lon="0.07203">
        <ele>82</ele>
        <time>2022-01-13T19:16:23Z</time>
      </trkpt>
      <trkpt lat="47.20599" lon="0.07141">
        <ele>82</ele>
        <time>2022-01-13T19:17:09Z</time>
      </trkpt>
      <trkpt lat="47.20609" lon="0.07107">
        <ele>82</ele>
        <time>2022-01-13T19:17:29Z</time>
      </trkpt>
      <trkpt lat="47.20653" lon="0.07052">
        <ele>81</ele>
        <time>2022-01-13T19:18:15Z</time>
      </trkpt>
      <trkpt lat="47.20593" lon="0.07035">
        <ele>82</ele>
        <time>2022-01-13T19:19:04Z</time>
      </trkpt>
      <trkpt lat="47.20495" lon="0.07003">
        <ele>83</ele>
        <time>2022-01-13T19:20:25Z</time>
      </trkpt>
      <trkpt lat="47.20401" lon="0.07017">
        <ele>82</ele>
        <time>2022-01-13T19:21:40Z</time>
      </trkpt>
      <trkpt lat="47.20342" lon="0.07001">
        <ele>83</ele>
        <time>2022-01-13T19:22:28Z</time>
      </trkpt>
      <trkpt lat="47.20033" lon="0.06976">
        <ele>87</ele>
        <time>2022-01-13T19:26:36Z</time>
      </trkpt>
      <trkpt lat="47.19849" lon="0.06965">
        <ele>86</ele>
        <time>2022-01-13T19:29:03Z</time>
      </trkpt>
      <trkpt lat="47.19781" lon="0.06961">
        <ele>87</ele>
        <time>2022-01-13T19:29:58Z</time>
      </trkpt>
      <trkpt lat="47.1966" lon="0.06974">
        <ele>86</ele>
        <time>2022-01-13T19:31:35Z</time>
      </trkpt>
      <trkpt lat="47.19604" lon="0.0698">
        <ele>83</ele>
        <time>2022-01-13T19:32:20Z</time>
      </trkpt>
      <trkpt lat="47.19528" lon="0.06979">
        <ele>81</ele>
        <time>2022-01-13T19:33:21Z</time>
      </trkpt>
      <trkpt lat="47.19483" lon="0.07156">
        <ele>80</ele>
        <time>2022-01-13T19:35:04Z</time>
      </trkpt>
      <trkpt lat="47.19472" lon="0.07174">
        <ele>80</ele>
        <time>2022-01-13T19:35:17Z</time>
      </trkpt>
      <trkpt lat="47.19404" lon="0.07387">
        <ele>83</ele>
        <time>2022-01-13T19:37:25Z</time>
      </trkpt>
      <trkpt lat="47.19376" lon="0.07403">
        <ele>84</ele>
        <time>2022-01-13T19:37:49Z</time>
      </trkpt>
      <trkpt lat="47.19354" lon="0.07448">
        <ele>84</ele>
        <time>2022-01-13T19:38:19Z</time>
      </trkpt>
      <trkpt lat="47.1922" lon="0.07568">
        <ele>87</ele>
        <time>2022-01-13T19:40:25Z</time>
      </trkpt>
      <trkpt lat="47.19159" lon="0.07478">
        <ele>88</ele>
        <time>2022-01-13T19:41:34Z</time>
      </trkpt>
      <trkpt lat="47.18976" lon="0.07253">
        <ele>96</ele>
        <time>2022-01-13T19:44:45Z</time>
      </trkpt>
      <trkpt lat="47.18836" lon="0.07086">
        <ele>103</ele>
        <time>2022-01-13T19:47:09Z</time>
      </trkpt>
      <trkpt lat="47.18859" lon="0.06992">
        <ele>103</ele>
        <time>2022-01-13T19:48:03Z</time>
      </trkpt>
      <trkpt lat="47.18971" lon="0.06725">
        <ele>100</ele>
        <time>2022-01-13T19:50:54Z</time>
      </trkpt>
      <trkpt lat="47.18979" lon="0.06696">
        <ele>100</ele>
        <time>2022-01-13T19:51:11Z</time>
      </trkpt>
      <trkpt lat="47.18995" lon="0.06664">
        <ele>100</ele>
        <time>2022-01-13T19:51:33Z</time>
      </trkpt>
      <trkpt lat="47.19036" lon="0.0668">
        <ele>99</ele>
        <time>2022-01-13T19:52:07Z</time>
      </trkpt>
      <trkpt lat="47.19068" lon="0.06573">
        <ele>97</ele>
        <time>2022-01-13T19:53:10Z</time>
      </trkpt>
      <trkpt lat="47.19085" lon="0.06475">
        <ele>98</ele>
        <time>2022-01-13T19:54:05Z</time>
      </trkpt>
      <trkpt lat="47.19112" lon="0.06439">
        <ele>95</ele>
        <time>2022-01-13T19:54:35Z</time>
      </trkpt>
      <trkpt lat="47.19124" lon="0.06372">
        <ele>98</ele>
        <time>2022-01-13T19:55:12Z</time>
      </trkpt>
      <trkpt lat="47.19101" lon="0.06318">
        <ele>103</ele>
        <time>2022-01-13T19:55:47Z</time>
      </trkpt>
      <trkpt lat="47.19104" lon="0.06268">
        <ele>103</ele>
        <time>2022-01-13T19:56:14Z</time>
      </trkpt>
      <trkpt lat="47.19111" lon="0.06246">
        <ele>104</ele>
        <time>2022-01-13T19:56:28Z</time>
      </trkpt>
      <trkpt lat="47.19081" lon="0.06216">
        <ele>105</ele>
        <time>2022-01-13T19:56:57Z</time>
      </trkpt>
      <trkpt lat="47.19068" lon="0.06155">
        <ele>105</ele>
        <time>2022-01-13T19:57:31Z</time>
      </trkpt>
      <trkpt lat="47.19082" lon="0.06087">
        <ele>103</ele>
        <time>2022-01-13T19:58:10Z</time>
      </trkpt>
      <trkpt lat="47.19088" lon="0.05975">
        <ele>99</ele>
        <time>2022-01-13T19:59:11Z</time>
      </trkpt>
      <trkpt lat="47.1911" lon="0.05825">
        <ele>94</ele>
        <time>2022-01-13T20:00:35Z</time>
      </trkpt>
      <trkpt lat="47.19144" lon="0.05715">
        <ele>90</ele>
        <time>2022-01-13T20:01:40Z</time>
      </trkpt>
      <trkpt lat="47.19145" lon="0.05652">
        <ele>91</ele>
        <time>2022-01-13T20:02:15Z</time>
      </trkpt>
      <trkpt lat="47.19177" lon="0.05471">
        <ele>89</ele>
        <time>2022-01-13T20:03:56Z</time>
      </trkpt>
      <trkpt lat="47.19153" lon="0.05456">
        <ele>91</ele>
        <time>2022-01-13T20:04:17Z</time>
      </trkpt>
      <trkpt lat="47.19028" lon="0.05435">
        <ele>99</ele>
        <time>2022-01-13T20:05:58Z</time>
      </trkpt>
      <trkpt lat="47.19002" lon="0.05463">
        <ele>100</ele>
        <time>2022-01-13T20:06:24Z</time>
      </trkpt>
      <trkpt lat="47.18971" lon="0.0546">
        <ele>101</ele>
        <time>2022-01-13T20:06:49Z</time>
      </trkpt>
      <trkpt lat="47.18862" lon="0.05363">
        <ele>105</ele>
        <time>2022-01-13T20:08:31Z</time>
      </trkpt>
      <trkpt lat="47.18743" lon="0.05301">
        <ele>106</ele>
        <time>2022-01-13T20:10:12Z</time>
      </trkpt>
      <trkpt lat="47.18706" lon="0.05318">
        <ele>106</ele>
        <time>2022-01-13T20:10:43Z</time>
      </trkpt>
      <trkpt lat="47.18701" lon="0.05353">
        <ele>106</ele>
        <time>2022-01-13T20:11:02Z</time>
      </trkpt>
      <trkpt lat="47.18676" lon="0.05363">
        <ele>107</ele>
        <time>2022-01-13T20:11:23Z</time>
      </trkpt>
      <trkpt lat="47.18648" lon="0.05424">
        <ele>106</ele>
        <time>2022-01-13T20:12:03Z</time>
      </trkpt>
      <trkpt lat="47.18578" lon="0.05476">
        <ele>106</ele>
        <time>2022-01-13T20:13:06Z</time>
      </trkpt>
      <trkpt lat="47.18551" lon="0.05536">
        <ele>106</ele>
        <time>2022-01-13T20:13:45Z</time>
      </trkpt>
      <trkpt lat="47.18495" lon="0.05588">
        <ele>106</ele>
        <time>2022-01-13T20:14:38Z</time>
      </trkpt>
      <trkpt lat="47.18477" lon="0.05591">
        <ele>107</ele>
        <time>2022-01-13T20:14:53Z</time>
      </trkpt>
      <trkpt lat="47.18447" lon="0.0558">
        <ele>107</ele>
        <time>2022-01-13T20:15:17Z</time>
      </trkpt>
      <trkpt lat="47.18403" lon="0.05595">
        <ele>108</ele>
        <time>2022-01-13T20:15:53Z</time>
      </trkpt>
      <trkpt lat="47.18349" lon="0.05635">
        <ele>106</ele>
        <time>2022-01-13T20:16:42Z</time>
      </trkpt>
      <trkpt lat="47.18326" lon="0.05655">
        <ele>104</ele>
        <time>2022-01-13T20:17:03Z</time>
      </trkpt>
      <trkpt lat="47.18324" lon="0.05604">
        <ele>104</ele>
        <time>2022-01-13T20:17:31Z</time>
      </trkpt>
      <trkpt lat="47.18298" lon="0.05508">
        <ele>97</ele>
        <time>2022-01-13T20:18:27Z</time>
      </trkpt>
      <trkpt lat="47.18275" lon="0.05407">
        <ele>86</ele>
        <time>2022-01-13T20:19:25Z</time>
      </trkpt>
      <trkpt lat="47.18293" lon="0.05346">
        <ele>81</ele>
        <time>2022-01-13T20:20:01Z</time>
      </trkpt>
      <trkpt lat="47.18326" lon="0.05308">
        <ele>82</ele>
        <time>2022-01-13T20:20:35Z</time>
      </trkpt>
      <trkpt lat="47.18401" lon="0.0523">
        <ele>71</ele>
        <time>2022-01-13T20:21:49Z</time>
      </trkpt>
      <trkpt lat="47.18379" lon="0.05191">
        <ele>66</ele>
        <time>2022-01-13T20:22:16Z</time>
      </trkpt>
      <trkpt lat="47.18363" lon="0.05053">
        <ele>68</ele>
        <time>2022-01-13T20:23:32Z</time>
      </trkpt>
      <trkpt lat="47.1824" lon="0.05044">
        <ele>76</ele>
        <time>2022-01-13T20:25:11Z</time>
      </trkpt>
      <trkpt lat="47.18207" lon="0.0503">
        <ele>78</ele>
        <time>2022-01-13T20:25:38Z</time>
      </trkpt>
      <trkpt lat="47.18164" lon="0.04994">
        <ele>81</ele>
        <time>2022-01-13T20:26:18Z</time>
      </trkpt>
      <trkpt lat="47.18053" lon="0.05048">
        <ele>75</ele>
        <time>2022-01-13T20:27:52Z</time>
      </trkpt>
      <trkpt lat="47.17977" lon="0.05129">
        <ele>69</ele>
        <time>2022-01-13T20:29:07Z</time>
      </trkpt>
      <trkpt lat="47.17933" lon="0.05154">
        <ele>67</ele>
        <time>2022-01-13T20:29:45Z</time>
      </trkpt>
      <trkpt lat="47.17912" lon="0.05182">
        <ele>67</ele>
        <time>2022-01-13T20:30:07Z</time>
      </trkpt>
      <trkpt lat="47.17892" lon="0.05249">
        <ele>70</ele>
        <time>2022-01-13T20:30:47Z</time>
      </trkpt>
      <trkpt lat="47.17799" lon="0.05473">
        <ele>80</ele>
        <time>2022-01-13T20:33:10Z</time>
      </trkpt>
      <trkpt lat="47.1777" lon="0.05756">
        <ele>84</ele>
        <time>2022-01-13T20:35:46Z</time>
      </trkpt>
      <trkpt lat="47.1762" lon="0.06177">
        <ele>82</ele>
        <time>2022-01-13T20:40:04Z</time>
      </trkpt>
      <trkpt lat="47.17607" lon="0.06248">
        <ele>85</ele>
        <time>2022-01-13T20:40:44Z</time>
      </trkpt>
      <trkpt lat="47.17604" lon="0.06295">
        <ele>88</ele>
        <time>2022-01-13T20:41:10Z</time>
      </trkpt>
      <trkpt lat="47.17551" lon="0.06708">
        <ele>96</ele>
        <time>2022-01-13T20:44:59Z</time>
      </trkpt>
      <trkpt lat="47.17538" lon="0.06768">
        <ele>97</ele>
        <time>2022-01-13T20:45:33Z</time>
      </trkpt>
      <trkpt lat="47.17541" lon="0.06827">
        <ele>98</ele>
        <time>2022-01-13T20:46:05Z</time>
      </trkpt>
      <trkpt lat="47.17526" lon="0.06909">
        <ele>101</ele>
        <time>2022-01-13T20:46:52Z</time>
      </trkpt>
      <trkpt lat="47.17543" lon="0.06987">
        <ele>103</ele>
        <time>2022-01-13T20:47:36Z</time>
      </trkpt>
      <trkpt lat="47.17587" lon="0.07116">
        <ele>106</ele>
        <time>2022-01-13T20:48:55Z</time>
      </trkpt>
      <trkpt lat="47.17593" lon="0.07195">
        <ele>107</ele>
        <time>2022-01-13T20:49:38Z</time>
      </trkpt>
      <trkpt lat="47.17587" lon="0.07386">
        <ele>112</ele>
        <time>2022-01-13T20:51:22Z</time>
      </trkpt>
      <trkpt lat="47.17575" lon="0.07615">
        <ele>109</ele>
        <time>2022-01-13T20:53:27Z</time>
      </trkpt>
      <trkpt lat="47.17573" lon="0.07719">
        <ele>104</ele>
        <time>2022-01-13T20:54:24Z</time>
      </trkpt>
      <trkpt lat="47.17584" lon="0.0777">
        <ele>102</ele>
        <time>2022-01-13T20:54:53Z</time>
      </trkpt>
      <trkpt lat="47.17565" lon="0.08049">
        <ele>93</ele>
        <time>2022-01-13T20:57:25Z</time>
      </trkpt>
      <trkpt lat="47.17571" lon="0.08134">
        <ele>92</ele>
        <time>2022-01-13T20:58:12Z</time>
      </trkpt>
      <trkpt lat="47.17585" lon="0.08168">
        <ele>92</ele>
        <time>2022-01-13T20:58:34Z</time>
      </trkpt>
      <trkpt lat="47.17685" lon="0.08119">
        <ele>98</ele>
        <time>2022-01-13T20:59:58Z</time>
      </trkpt>
      <trkpt lat="47.17809" lon="0.08078">
        <ele>98</ele>
        <time>2022-01-13T21:01:40Z</time>
      </trkpt>
      <trkpt lat="47.1783" lon="0.08065">
        <ele>96</ele>
        <time>2022-01-13T21:01:58Z</time>
      </trkpt>
      <trkpt lat="47.17851" lon="0.08046">
        <ele>95</ele>
        <time>2022-01-13T21:02:18Z</time>
      </trkpt>
      <trkpt lat="47.17872" lon="0.08021">
        <ele>93</ele>
        <time>2022-01-13T21:02:39Z</time>
      </trkpt>
      <trkpt lat="47.17904" lon="0.08">
        <ele>91</ele>
        <time>2022-01-13T21:03:07Z</time>
      </trkpt>
      <trkpt lat="47.17952" lon="0.0799">
        <ele>90</ele>
        <time>2022-01-13T21:03:46Z</time>
      </trkpt>
      <trkpt lat="47.18005" lon="0.07984">
        <ele>89</ele>
        <time>2022-01-13T21:04:29Z</time>
      </trkpt>
      <trkpt lat="47.18088" lon="0.07994">
        <ele>89</ele>
        <time>2022-01-13T21:05:35Z</time>
      </trkpt>
      <trkpt lat="47.18172" lon="0.07965">
        <ele>89</ele>
        <time>2022-01-13T21:06:44Z</time>
      </trkpt>
      <trkpt lat="47.18201" lon="0.07965">
        <ele>88</ele>
        <time>2022-01-13T21:07:08Z</time>
      </trkpt>
      <trkpt lat="47.1819" lon="0.08236">
        <ele>78</ele>
        <time>2022-01-13T21:09:35Z</time>
      </trkpt>
      <trkpt lat="47.18094" lon="0.08433">
        <ele>74</ele>
        <time>2022-01-13T21:11:47Z</time>
      </trkpt>
      <trkpt lat="47.18105" lon="0.08483">
        <ele>73</ele>
        <time>2022-01-13T21:12:16Z</time>
      </trkpt>
      <trkpt lat="47.18132" lon="0.08552">
        <ele>72</ele>
        <time>2022-01-13T21:12:59Z</time>
      </trkpt>
      <trkpt lat="47.18172" lon="0.08638">
        <ele>71</ele>
        <time>2022-01-13T21:13:56Z</time>
      </trkpt>
      <trkpt lat="47.18186" lon="0.08713">
        <ele>71</ele>
        <time>2022-01-13T21:14:38Z</time>
      </trkpt>
      <trkpt lat="47.1818" lon="0.0877">
        <ele>70</ele>
        <time>2022-01-13T21:15:10Z</time>
      </trkpt>
      <trkpt lat="47.18208" lon="0.08737">
        <ele>71</ele>
        <time>2022-01-13T21:15:38Z</time>
      </trkpt>
      <trkpt lat="47.18238" lon="0.08733">
        <ele>71</ele>
        <time>2022-01-13T21:16:03Z</time>
      </trkpt>
      <trkpt lat="47.18298" lon="0.08764">
        <ele>72</ele>
        <time>2022-01-13T21:16:53Z</time>
      </trkpt>
      <trkpt lat="47.18342" lon="0.08789">
        <ele>72</ele>
        <time>2022-01-13T21:17:31Z</time>
      </trkpt>
      <trkpt lat="47.18389" lon="0.08841">
        <ele>73</ele>
        <time>2022-01-13T21:18:18Z</time>
      </trkpt>
      <trkpt lat="47.18461" lon="0.0889">
        <ele>75</ele>
        <time>2022-01-13T21:19:22Z</time>
      </trkpt>
      <trkpt lat="47.18474" lon="0.08896">
        <ele>76</ele>
        <time>2022-01-13T21:19:33Z</time>
      </trkpt>
      <trkpt lat="47.18804" lon="0.09">
        <ele>80</ele>
        <time>2022-01-13T21:24:03Z</time>
      </trkpt>
      <trkpt lat="47.18877" lon="0.08831">
        <ele>82</ele>
        <time>2022-01-13T21:25:52Z</time>
      </trkpt>
      <trkpt lat="47.18982" lon="0.09016">
        <ele>82</ele>
        <time>2022-01-13T21:28:03Z</time>
      </trkpt>
      <trkpt lat="47.1942" lon="0.09521">
        <ele>84</ele>
        <time>2022-01-13T21:35:29Z</time>
      </trkpt>
      <trkpt lat="47.19423" lon="0.09565">
        <ele>81</ele>
        <time>2022-01-13T21:35:53Z</time>
      </trkpt>
      <trkpt lat="47.19435" lon="0.09606">
        <ele>73</ele>
        <time>2022-01-13T21:36:17Z</time>
      </trkpt>
      <trkpt lat="47.19421" lon="0.09648">
        <ele>69</ele>
        <time>2022-01-13T21:36:42Z</time>
      </trkpt>
      <trkpt lat="47.19361" lon="0.09718">
        <ele>70</ele>
        <time>2022-01-13T21:37:44Z</time>
      </trkpt>
      <trkpt lat="47.19342" lon="0.09757">
        <ele>70</ele>
        <time>2022-01-13T21:38:10Z</time>
      </trkpt>
      <trkpt lat="47.19282" lon="0.09837">
        <ele>70</ele>
        <time>2022-01-13T21:39:15Z</time>
      </trkpt>
      <trkpt lat="47.19261" lon="0.09854">
        <ele>73</ele>
        <time>2022-01-13T21:39:34Z</time>
      </trkpt>
      <trkpt lat="47.19248" lon="0.09888">
        <ele>70</ele>
        <time>2022-01-13T21:39:55Z</time>
      </trkpt>
      <trkpt lat="47.19242" lon="0.09915">
        <ele>67</ele>
        <time>2022-01-13T21:40:10Z</time>
      </trkpt>
      <trkpt lat="47.19225" lon="0.09943">
        <ele>66</ele>
        <time>2022-01-13T21:40:31Z</time>
      </trkpt>
      <trkpt lat="47.19155" lon="0.09955">
        <ele>75</ele>
        <time>2022-01-13T21:41:27Z</time>
      </trkpt>
      <trkpt lat="47.19184" lon="0.09986">
        <ele>69</ele>
        <time>2022-01-13T21:41:56Z</time>
      </trkpt>
      <trkpt lat="47.19111" lon="0.09889">
        <ele>78</ele>
        <time>2022-01-13T21:43:15Z</time>
      </trkpt>
      <trkpt lat="47.19006" lon="0.10065">
        <ele>72</ele>
        <time>2022-01-13T21:45:22Z</time>
      </trkpt>
      <trkpt lat="47.19026" lon="0.10111">
        <ele>72</ele>
        <time>2022-01-13T21:45:52Z</time>
      </trkpt>
      <trkpt lat="47.19021" lon="0.10178">
        <ele>70</ele>
        <time>2022-01-13T21:46:29Z</time>
      </trkpt>
      <trkpt lat="47.19034" lon="0.10176">
        <ele>70</ele>
        <time>2022-01-13T21:46:39Z</time>
      </trkpt>
      <trkpt lat="47.18994" lon="0.10232">
        <ele>67</ele>
        <time>2022-01-13T21:47:23Z</time>
      </trkpt>
      <trkpt lat="47.18973" lon="0.10256">
        <ele>66</ele>
        <time>2022-01-13T21:47:45Z</time>
      </trkpt>
      <trkpt lat="47.18979" lon="0.10263">
        <ele>65</ele>
        <time>2022-01-13T21:47:51Z</time>
      </trkpt>
      <trkpt lat="47.19023" lon="0.10232">
        <ele>65</ele>
        <time>2022-01-13T21:48:30Z</time>
      </trkpt>
      <trkpt lat="47.19049" lon="0.10209">
        <ele>65</ele>
        <time>2022-01-13T21:48:54Z</time>
      </trkpt>
      <trkpt lat="47.19075" lon="0.10174">
        <ele>69</ele>
        <time>2022-01-13T21:49:22Z</time>
      </trkpt>
      <trkpt lat="47.19079" lon="0.10149">
        <ele>71</ele>
        <time>2022-01-13T21:49:36Z</time>
      </trkpt>
      <trkpt lat="47.19086" lon="0.10134">
        <ele>72</ele>
        <time>2022-01-13T21:49:46Z</time>
      </trkpt>
      <trkpt lat="47.19138" lon="0.10103">
        <ele>65</ele>
        <time>2022-01-13T21:50:31Z</time>
      </trkpt>
      <trkpt lat="47.19207" lon="0.10078">
        <ele>54</ele>
        <time>2022-01-13T21:51:28Z</time>
      </trkpt>
      <trkpt lat="47.1925" lon="0.10044">
        <ele>49</ele>
        <time>2022-01-13T21:52:07Z</time>
      </trkpt>
      <trkpt lat="47.19259" lon="0.10044">
        <ele>48</ele>
        <time>2022-01-13T21:52:14Z</time>
      </trkpt>
      <trkpt lat="47.19264" lon="0.10057">
        <ele>46</ele>
        <time>2022-01-13T21:52:22Z</time>
      </trkpt>
      <trkpt lat="47.19242" lon="0.10147">
        <ele>41</ele>
        <time>2022-01-13T21:53:14Z</time>
      </trkpt>
      <trkpt lat="47.19249" lon="0.10166">
        <ele>38</ele>
        <time>2022-01-13T21:53:26Z</time>
      </trkpt>
      <trkpt lat="47.19257" lon="0.10163">
        <ele>38</ele>
        <time>2022-01-13T21:53:33Z</time>
      </trkpt>
      <trkpt lat="47.19304" lon="0.10102">
        <ele>37</ele>
        <time>2022-01-13T21:54:23Z</time>
      </trkpt>
      <trkpt lat="47.19367" lon="0.10038">
        <ele>36</ele>
        <time>2022-01-13T21:55:24Z</time>
      </trkpt>
      <trkpt lat="47.19401" lon="0.10001">
        <ele>34</ele>
        <time>2022-01-13T21:55:58Z</time>
      </trkpt>
      <trkpt lat="47.1941" lon="0.0999">
        <ele>34</ele>
        <time>2022-01-13T21:56:07Z</time>
      </trkpt>
      <trkpt lat="47.19423" lon="0.09976">
        <ele>34</ele>
        <time>2022-01-13T21:56:20Z</time>
      </trkpt>
      <trkpt lat="47.19431" lon="0.09967">
        <ele>34</ele>
        <time>2022-01-13T21:56:28Z</time>
      </trkpt>
      <trkpt lat="47.19437" lon="0.09962">
        <ele>34</ele>
        <time>2022-01-13T21:56:34Z</time>
      </trkpt>
      <trkpt lat="47.19486" lon="0.09937">
        <ele>32</ele>
        <time>2022-01-13T21:57:15Z</time>
      </trkpt>
      <trkpt lat="47.1954" lon="0.09904">
        <ele>30</ele>
        <time>2022-01-13T21:58:02Z</time>
      </trkpt>
      <trkpt lat="47.19607" lon="0.09861">
        <ele>30</ele>
        <time>2022-01-13T21:59:01Z</time>
      </trkpt>
      <trkpt lat="47.19665" lon="0.09816">
        <ele>32</ele>
        <time>2022-01-13T21:59:53Z</time>
      </trkpt>
      <trkpt lat="47.19719" lon="0.09768">
        <ele>32</ele>
        <time>2022-01-13T22:00:44Z</time>
      </trkpt>
      <trkpt lat="47.19795" lon="0.09681">
        <ele>32</ele>
        <time>2022-01-13T22:02:01Z</time>
      </trkpt>
      <trkpt lat="47.19871" lon="0.09589">
        <ele>33</ele>
        <time>2022-01-13T22:03:20Z</time>
      </trkpt>
      <trkpt lat="47.19876" lon="0.09572">
        <ele>33</ele>
        <time>2022-01-13T22:03:30Z</time>
      </trkpt>
      <trkpt lat="47.19896" lon="0.09558">
        <ele>33</ele>
        <time>2022-01-13T22:03:48Z</time>
      </trkpt>
      <trkpt lat="47.1995" lon="0.09486">
        <ele>33</ele>
        <time>2022-01-13T22:04:46Z</time>
      </trkpt>
      <trkpt lat="47.20033" lon="0.09351">
        <ele>31</ele>
        <time>2022-01-13T22:06:25Z</time>
      </trkpt>
      <trkpt lat="47.20117" lon="0.09215">
        <ele>31</ele>
        <time>2022-01-13T22:08:05Z</time>
      </trkpt>
      <trkpt lat="47.20183" lon="0.09134">
        <ele>33</ele>
        <time>2022-01-13T22:09:14Z</time>
      </trkpt>
      <trkpt lat="47.20244" lon="0.09017">
        <ele>36</ele>
        <time>2022-01-13T22:10:34Z</time>
      </trkpt>
      <trkpt lat="47.20304" lon="0.08895">
        <ele>36</ele>
        <time>2022-01-13T22:11:56Z</time>
      </trkpt>
      <trkpt lat="47.20344" lon="0.08764">
        <ele>36</ele>
        <time>2022-01-13T22:13:14Z</time>
      </trkpt>
      <trkpt lat="47.20418" lon="0.08642">
        <ele>35</ele>
        <time>2022-01-13T22:14:43Z</time>
      </trkpt>
      <trkpt lat="47.20492" lon="0.08506">
        <ele>33</ele>
        <time>2022-01-13T22:16:18Z</time>
      </trkpt>
      <trkpt lat="47.20567" lon="0.0836">
        <ele>36</ele>
        <time>2022-01-13T22:17:57Z</time>
      </trkpt>
      <trkpt lat="47.20607" lon="0.08287">
        <ele>37</ele>
        <time>2022-01-13T22:18:48Z</time>
      </trkpt>
      <trkpt lat="47.20685" lon="0.08182">
        <ele>34</ele>
        <time>2022-01-13T22:20:13Z</time>
      </trkpt>
      <trkpt lat="47.20703" lon="0.08157">
        <ele>34</ele>
        <time>2022-01-13T22:20:33Z</time>
      </trkpt>
      <trkpt lat="47.20717" lon="0.08118">
        <ele>35</ele>
        <time>2022-01-13T22:20:57Z</time>
      </trkpt>
      <trkpt lat="47.207" lon="0.08137">
        <ele>36</ele>
        <time>2022-01-13T22:21:14Z</time>
      </trkpt>
      <trkpt lat="47.20699" lon="0.08124">
        <ele>37</ele>
        <time>2022-01-13T22:21:21Z</time>
      </trkpt>
      <trkpt lat="47.20699" lon="0.08106">
        <ele>38</ele>
        <time>2022-01-13T22:21:31Z</time>
      </trkpt>
      <trkpt lat="47.2077" lon="0.08004">
        <ele>38</ele>
        <time>2022-01-13T22:22:50Z</time>
      </trkpt>
      <trkpt lat="47.20849" lon="0.07899">
        <ele>40</ele>
        <time>2022-01-13T22:24:15Z</time>
      </trkpt>
      <trkpt lat="47.20906" lon="0.07827">
        <ele>38</ele>
        <time>2022-01-13T22:25:16Z</time>
      </trkpt>
      <trkpt lat="47.20923" lon="0.07831">
        <ele>35</ele>
        <time>2022-01-13T22:25:29Z</time>
      </trkpt>
      <trkpt lat="47.2109" lon="0.08087">
        <ele>28</ele>
        <time>2022-01-13T22:28:42Z</time>
      </trkpt>
      <trkpt lat="47.21243" lon="0.08333">
        <ele>35</ele>
        <time>2022-01-13T22:31:44Z</time>
      </trkpt>
      <trkpt lat="47.21275" lon="0.08381">
        <ele>35</ele>
        <time>2022-01-13T22:32:20Z</time>
      </trkpt>
      <trkpt lat="47.2131" lon="0.08242">
        <ele>39</ele>
        <time>2022-01-13T22:33:41Z</time>
      </trkpt>
      <trkpt lat="47.21227" lon="0.08013">
        <ele>32</ele>
        <time>2022-01-13T22:36:02Z</time>
      </trkpt>
      <trkpt lat="47.21202" lon="0.07971">
        <ele>30</ele>
        <time>2022-01-13T22:36:33Z</time>
      </trkpt>
      <trkpt lat="47.21157" lon="0.07968">
        <ele>29</ele>
        <time>2022-01-13T22:37:09Z</time>
      </trkpt>
      <trkpt lat="47.21181" lon="0.07912">
        <ele>28</ele>
        <time>2022-01-13T22:37:45Z</time>
      </trkpt>
      <trkpt lat="47.21204" lon="0.07961">
        <ele>30</ele>
        <time>2022-01-13T22:38:17Z</time>
      </trkpt>
      <trkpt lat="47.21215" lon="0.07989">
        <ele>31</ele>
        <time>2022-01-13T22:38:35Z</time>
      </trkpt>
      <trkpt lat="47.21161" lon="0.08056">
        <ele>30</ele>
        <time>2022-01-13T22:39:31Z</time>
      </trkpt>
      <trkpt lat="47.21051" lon="0.08259">
        <ele>30</ele>
        <time>2022-01-13T22:41:52Z</time>
      </trkpt>
      <trkpt lat="47.21019" lon="0.08337">
        <ele>28</ele>
        <time>2022-01-13T22:42:42Z</time>
      </trkpt>
      <trkpt lat="47.2099" lon="0.08377">
        <ele>28</ele>
        <time>2022-01-13T22:43:14Z</time>
      </trkpt>
      <trkpt lat="47.2095" lon="0.0846">
        <ele>29</ele>
        <time>2022-01-13T22:44:09Z</time>
      </trkpt>
      <trkpt lat="47.20887" lon="0.08666">
        <ele>31</ele>
        <time>2022-01-13T22:46:12Z</time>
      </trkpt>
      <trkpt lat="47.2082" lon="0.0892">
        <ele>31</ele>
        <time>2022-01-13T22:48:40Z</time>
      </trkpt>
      <trkpt lat="47.20776" lon="0.09038">
        <ele>30</ele>
        <time>2022-01-13T22:49:53Z</time>
      </trkpt>
      <trkpt lat="47.20692" lon="0.09245">
        <ele>30</ele>
        <time>2022-01-13T22:52:05Z</time>
      </trkpt>
      <trkpt lat="47.20604" lon="0.09453">
        <ele>30</ele>
        <time>2022-01-13T22:54:18Z</time>
      </trkpt>
      <trkpt lat="47.20591" lon="0.09519">
        <ele>32</ele>
        <time>2022-01-13T22:54:55Z</time>
      </trkpt>
      <trkpt lat="47.2058" lon="0.09549">
        <ele>33</ele>
        <time>2022-01-13T22:55:14Z</time>
      </trkpt>
      <trkpt lat="47.20574" lon="0.09557">
        <ele>33</ele>
        <time>2022-01-13T22:55:20Z</time>
      </trkpt>
      <trkpt lat="47.20565" lon="0.09558">
        <ele>33</ele>
        <time>2022-01-13T22:55:28Z</time>
      </trkpt>
      <trkpt lat="47.20567" lon="0.09531">
        <ele>33</ele>
        <time>2022-01-13T22:55:42Z</time>
      </trkpt>
      <trkpt lat="47.20504" lon="0.09475">
        <ele>33</ele>
        <time>2022-01-13T22:56:41Z</time>
      </trkpt>
      <trkpt lat="47.20473" lon="0.09456">
        <ele>33</ele>
        <time>2022-01-13T22:57:08Z</time>
      </trkpt>
      <trkpt lat="47.20419" lon="0.09448">
        <ele>33</ele>
        <time>2022-01-13T22:57:52Z</time>
      </trkpt>
      <trkpt lat="47.20338" lon="0.09534">
        <ele>30</ele>
        <time>2022-01-13T22:59:12Z</time>
      </trkpt>
      <trkpt lat="47.20345" lon="0.0955">
        <ele>31</ele>
        <time>2022-01-13T22:59:22Z</time>
      </trkpt>
      <trkpt lat="47.20341" lon="0.0959">
        <ele>32</ele>
        <time>2022-01-13T22:59:44Z</time>
      </trkpt>
      <trkpt lat="47.20318" lon="0.09618">
        <ele>32</ele>
        <time>2022-01-13T23:00:08Z</time>
      </trkpt>
      <trkpt lat="47.20238" lon="0.09785">
        <ele>32</ele>
        <time>2022-01-13T23:01:59Z</time>
      </trkpt>
      <trkpt lat="47.20192" lon="0.0973">
        <ele>31</ele>
        <time>2022-01-13T23:02:46Z</time>
      </trkpt>
      <trkpt lat="47.20156" lon="0.09679">
        <ele>30</ele>
        <time>2022-01-13T23:03:26Z</time>
      </trkpt>
      <trkpt lat="47.20095" lon="0.09698">
        <ele>29</ele>
        <time>2022-01-13T23:04:16Z</time>
      </trkpt>
      <trkpt lat="47.19997" lon="0.09753">
        <ele>32</ele>
        <time>2022-01-13T23:05:40Z</time>
      </trkpt>
      <trkpt lat="47.19957" lon="0.09775">
        <ele>32</ele>
        <time>2022-01-13T23:06:14Z</time>
      </trkpt>
      <trkpt lat="47.19936" lon="0.09801">
        <ele>32</ele>
        <time>2022-01-13T23:06:36Z</time>
      </trkpt>
      <trkpt lat="47.19924" lon="0.09823">
        <ele>31</ele>
        <time>2022-01-13T23:06:52Z</time>
      </trkpt>
      <trkpt lat="47.19868" lon="0.09876">
        <ele>30</ele>
        <time>2022-01-13T23:07:45Z</time>
      </trkpt>
      <trkpt lat="47.19862" lon="0.09944">
        <ele>29</ele>
        <time>2022-01-13T23:08:22Z</time>
      </trkpt>
      <trkpt lat="47.19856" lon="0.09963">
        <ele>29</ele>
        <time>2022-01-13T23:08:34Z</time>
      </trkpt>
      <trkpt lat="47.19836" lon="0.09992">
        <ele>29</ele>
        <time>2022-01-13T23:08:56Z</time>
      </trkpt>
      <trkpt lat="47.19833" lon="0.10065">
        <ele>31</ele>
        <time>2022-01-13T23:09:36Z</time>
      </trkpt>
      <trkpt lat="47.19866" lon="0.10136">
        <ele>33</ele>
        <time>2022-01-13T23:10:23Z</time>
      </trkpt>
      <trkpt lat="47.19887" lon="0.10164">
        <ele>33</ele>
        <time>2022-01-13T23:10:46Z</time>
      </trkpt>
      <trkpt lat="47.19955" lon="0.10117">
        <ele>34</ele>
        <time>2022-01-13T23:11:46Z</time>
      </trkpt>
      <trkpt lat="47.20009" lon="0.10114">
        <ele>35</ele>
        <time>2022-01-13T23:12:29Z</time>
      </trkpt>
      <trkpt lat="47.20058" lon="0.10136">
        <ele>34</ele>
        <time>2022-01-13T23:13:10Z</time>
      </trkpt>
      <trkpt lat="47.20157" lon="0.1023">
        <ele>34</ele>
        <time>2022-01-13T23:14:44Z</time>
      </trkpt>
      <trkpt lat="47.2027" lon="0.10435">
        <ele>37</ele>
        <time>2022-01-13T23:17:08Z</time>
      </trkpt>
      <trkpt lat="47.20383" lon="0.10566">
        <ele>32</ele>
        <time>2022-01-13T23:19:03Z</time>
      </trkpt>
      <trkpt lat="47.20469" lon="0.10662">
        <ele>32</ele>
        <time>2022-01-13T23:20:30Z</time>
      </trkpt>
      <trkpt lat="47.20501" lon="0.10728">
        <ele>32</ele>
        <time>2022-01-13T23:21:14Z</time>
      </trkpt>
      <trkpt lat="47.20633" lon="0.10485">
        <ele>30</ele>
        <time>2022-01-13T23:24:03Z</time>
      </trkpt>
      <trkpt lat="47.20712" lon="0.10344">
        <ele>31</ele>
        <time>2022-01-13T23:25:42Z</time>
      </trkpt>
      <trkpt lat="47.20847" lon="0.10195">
        <ele>30</ele>
        <time>2022-01-13T23:27:57Z</time>
      </trkpt>
      <trkpt lat="47.20959" lon="0.09941">
        <ele>27</ele>
        <time>2022-01-13T23:30:42Z</time>
      </trkpt>
      <trkpt lat="47.20986" lon="0.09941">
        <ele>27</ele>
        <time>2022-01-13T23:31:04Z</time>
      </trkpt>
      <trkpt lat="47.21039" lon="0.09785">
        <ele>30</ele>
        <time>2022-01-13T23:32:39Z</time>
      </trkpt>
      <trkpt lat="47.21059" lon="0.09772">
        <ele>30</ele>
        <time>2022-01-13T23:32:56Z</time>
      </trkpt>
      <trkpt lat="47.21228" lon="0.0981">
        <ele>35</ele>
        <time>2022-01-13T23:35:13Z</time>
      </trkpt>
      <trkpt lat="47.21388" lon="0.09852">
        <ele>35</ele>
        <time>2022-01-13T23:37:23Z</time>
      </trkpt>
      <trkpt lat="47.21415" lon="0.09859">
        <ele>36</ele>
        <time>2022-01-13T23:37:45Z</time>
      </trkpt>
      <trkpt lat="47.21627" lon="0.09905">
        <ele>33</ele>
        <time>2022-01-13T23:40:37Z</time>
      </trkpt>
      <trkpt lat="47.21658" lon="0.09934">
        <ele>32</ele>
        <time>2022-01-13T23:41:06Z</time>
      </trkpt>
      <trkpt lat="47.21676" lon="0.09936">
        <ele>31</ele>
        <time>2022-01-13T23:41:20Z</time>
      </trkpt>
      <trkpt lat="47.21668" lon="0.09909">
        <ele>31</ele>
        <time>2022-01-13T23:41:37Z</time>
      </trkpt>
      <trkpt lat="47.2185" lon="0.09871">
        <ele>32</ele>
        <time>2022-01-13T23:44:04Z</time>
      </trkpt>
      <trkpt lat="47.21853" lon="0.09859">
        <ele>32</ele>
        <time>2022-01-13T23:44:11Z</time>
      </trkpt>
      <trkpt lat="47.21904" lon="0.09876">
        <ele>30</ele>
        <time>2022-01-13T23:44:53Z</time>
      </trkpt>
      <trkpt lat="47.21936" lon="0.09985">
        <ele>32</ele>
        <time>2022-01-13T23:45:57Z</time>
      </trkpt>
      <trkpt lat="47.22005" lon="0.10131">
        <ele>33</ele>
        <time>2022-01-13T23:47:34Z</time>
      </trkpt>
      <trkpt lat="47.22083" lon="0.10309">
        <ele>32</ele>
        <time>2022-01-13T23:49:29Z</time>
      </trkpt>
      <trkpt lat="47.22157" lon="0.10504">
        <ele>31</ele>
        <time>2022-01-13T23:51:30Z</time>
      </trkpt>
      <trkpt lat="47.2223" lon="0.10704">
        <ele>29</ele>
        <time>2022-01-13T23:53:34Z</time>
      </trkpt>
      <trkpt lat="47.22242" lon="0.10749">
        <ele>28</ele>
        <time>2022-01-13T23:54:00Z</time>
      </trkpt>
      <trkpt lat="47.22244" lon="0.1078">
        <ele>29</ele>
        <time>2022-01-13T23:54:17Z</time>
      </trkpt>
      <trkpt lat="47.22282" lon="0.1085">
        <ele>29</ele>
        <time>2022-01-13T23:55:06Z</time>
      </trkpt>
      <trkpt lat="47.22364" lon="0.10975">
        <ele>30</ele>
        <time>2022-01-13T23:56:40Z</time>
      </trkpt>
      <trkpt lat="47.22437" lon="0.11081">
        <ele>30</ele>
        <time>2022-01-13T23:58:02Z</time>
      </trkpt>
      <trkpt lat="47.22467" lon="0.11167">
        <ele>30</ele>
        <time>2022-01-13T23:58:55Z</time>
      </trkpt>
      <trkpt lat="47.22432" lon="0.11207">
        <ele>33</ele>
        <time>2022-01-13T23:59:31Z</time>
      </trkpt>
      <trkpt lat="47.22398" lon="0.1125">
        <ele>34</ele>
        <time>2022-01-14T00:00:06Z</time>
      </trkpt>
      <trkpt lat="47.22369" lon="0.11283">
        <ele>33</ele>
        <time>2022-01-14T00:00:36Z</time>
      </trkpt>
      <trkpt lat="47.22365" lon="0.11294">
        <ele>33</ele>
        <time>2022-01-14T00:00:43Z</time>
      </trkpt>
      <trkpt lat="47.22354" lon="0.11297">
        <ele>33</ele>
        <time>2022-01-14T00:00:52Z</time>
      </trkpt>
      <trkpt lat="47.22315" lon="0.11413">
        <ele>33</ele>
        <time>2022-01-14T00:02:02Z</time>
      </trkpt>
      <trkpt lat="47.22336" lon="0.11577">
        <ele>33</ele>
        <time>2022-01-14T00:03:33Z</time>
      </trkpt>
      <trkpt lat="47.22391" lon="0.11525">
        <ele>33</ele>
        <time>2022-01-14T00:04:25Z</time>
      </trkpt>
      <trkpt lat="47.22471" lon="0.11675">
        <ele>34</ele>
        <time>2022-01-14T00:06:09Z</time>
      </trkpt>
      <trkpt lat="47.22598" lon="0.11587">
        <ele>31</ele>
        <time>2022-01-14T00:08:01Z</time>
      </trkpt>
      <trkpt lat="47.22655" lon="0.1191">
        <ele>34</ele>
        <time>2022-01-14T00:11:03Z</time>
      </trkpt>
      <trkpt lat="47.22749" lon="0.12402">
        <ele>36</ele>
        <time>2022-01-14T00:15:40Z</time>
      </trkpt>
      <trkpt lat="47.22662" lon="0.12508">
        <ele>33</ele>
        <time>2022-01-14T00:17:11Z</time>
      </trkpt>
      <trkpt lat="47.22634" lon="0.12473">
        <ele>32</ele>
        <time>2022-01-14T00:17:40Z</time>
      </trkpt>
    </trkseg>
  </trk>
</gpx>